Weather in Tachov

Czech Republic     49°47′43″N   12°37′58″E
temp.,
°C
wind,
m/s
gust,
m/s
humid.,
%
clouds,
%
prec.,
mm/h
press.,
hPa
HPBL,
m
10 april, sat
sat1023:00+4wsw118984 0.0 101610
02:00+2sw1191100 0.0 101612
05:00+2ssw2292100 0.0 101521
08:00+5sw41384100 0.1 1015527
11:00+5sw41189100 1.3 1016440
14:00+7wsw41091100 1.6 1017479
17:00+9sw3483100 0.0 1016661
20:00+6se019384 0.0 101510
11 april, sun
sun1123:00+5e219591 0.0 101615
02:00+4e1196100 0.0 101510
05:00+3e1195100 0.0 101410
08:00+5e1192100 0.0 101478
11:00+10ese2373100 0.0 1012495
14:00+14se2357100 0.0 1011970
17:00+14ese2359100 0.0 1010754
20:00+10sse117897 0.0 101110
12 april, mon
mon1223:00+7w1183100 0.0 101210
02:00+6wnw22895 0.0 101415
05:00+5wnw119628 0.0 101414
08:00+7nw2493100 0.0 1015324
11:00+2nnw51196100 3.0 1018406
14:00+1nnw51196100 5.3 1021535
17:000nnw51297100 3.4 1022715
20:000nnw41195100 6.5 1025924
13 april, tue
tue1323:000nnw31091100 1.5 1027873
02:00−1w2295100 1.6 102851
05:00−2wnw2595100 0.0 1028113
08:00−1nw2690100 0.0 1029289
11:00+1nnw467999 0.0 10291026
14:00+3nnw5667100 0.0 10281547
17:00+4nnw3557100 0.0 10271347
20:00+1wnw2585100 0.1 1028109
14 april, wed
wed1423:00−1w2293100 0.0 102935
02:00−2wnw2392100 0.0 102957
05:00−3wnw2292100 0.0 102935
08:00−1nw2682100 0.0 1029293
11:00+3nnw4558100 0.0 10281499
14:00+5nnw4652100 0.1 10271758
17:00+5nnw4647100 0.1 10261812
20:000n2276100 0.1 102713